Regional Weather Roundup
Issued by NWS

Home | Current Version | Previous Version | Graphics & Text | Print | Product List | Glossary Off
Versions: 1 2 3 4 5 6 7 8 9 10 11 12 13 14 15 16 17 18 19 20 21 22 23 24 25 26 27 28 29 30 31 32 33 34 35 36 37 38 39 40 41 42 43 44 45 46 47 48 49 50

000
ASUS43 KMKX 011000
RWRWI

WISCONSIN REGIONAL WEATHER ROUNDUP
NATIONAL WEATHER SERVICE MILWAUKEE/SULLIVAN WI
500 AM CDT WED JUL 01 2015

NOTE: "FAIR" INDICATES FEW OR NO CLOUDS BELOW 12,000 FEET WITH NO
SIGNIFICANT WEATHER AND/OR OBSTRUCTIONS TO VISIBILITY.

WIZ001-002-006>008-014>016-023>028-011100-
NORTHWEST WISCONSIN

CITY           SKY/WX    TMP DP  RH WIND       PRES   REMARKS
SUPERIOR ARPT  PTCLDY    44  44 100 CALM      30.00S
ASHLAND        PTCLDY    42  41  96 CALM      30.01R
HAYWARD        PTCLDY    43  41  93 N5        30.01R
SIREN          PTCLDY    47  46  95 CALM      30.01R
CUMBERLAND     CLEAR     48  46  93 CALM      30.01R
RICE LAKE      CLEAR     48  46  92 CALM      30.02R
CHETEK         CLEAR     52  47  84 E6        30.00S
LADYSMITH      PTCLDY    45  43  94 CALM      30.02R
EAU CLAIRE     NOT AVBL
MENOMONIE      PTCLDY    51  49  92 CALM      29.99F
NEW RICHMOND   MOCLDY    53  52  96 NE3       29.99S
OSCEOLA        CLOUDY    54  54 100 NE3       30.02R
$$

WIZ003>005-009-010-017-018-011100-
NORTH CENTRAL WISCONSIN

CITY           SKY/WX    TMP DP  RH WIND       PRES   REMARKS
MANITOWISH WTR CLEAR     41  41 100 NE3       29.99F
ARBOR VITAE    CLEAR     44  42  93 CALM      29.99S
WOODRUFF       CLEAR     44  42  93 CALM      29.99S
RHINELANDER    CLEAR     44  41  89 CALM      30.00R
EAGLE RIVER    FOG       38  38 100 CALM      29.98R VSB 1
LAND O LAKES     N/A     37  37 100 CALM      29.99S FOG
PHILLIPS       PTCLDY    38  38 100 CALM      30.00R
TOMAHAWK       CLEAR     33  32  96 CALM      30.01R
MEDFORD        CLEAR     40  40  99 CALM      30.00S
MERRILL        CLEAR     38  38 100 CALM      30.00R FOG
$$

WIZ029-030-035-036-043>047-011100-
CENTRAL WISCONSIN

CITY           SKY/WX    TMP DP  RH WIND       PRES   REMARKS
WAUSAU         CLEAR     46  44  93 CALM      29.98R
MOSINEE        CLEAR     45  45 100 N6        30.00R
MARSHFIELD     CLEAR     47  43  86 CALM      29.99R
STEVENS POINT  CLEAR     41  40  97 CALM      29.99R
WAUPACA        CLEAR     49  45  87 NW5       29.98R
WAUTOMA        NOT AVBL
WISC RAPIDS    CLEAR     46  43  89 CALM      29.99S
CAMP DOUGLAS   NOT AVBL
$$

WIZ011>013-019>022-031-037>040-048>050-011100-
NORTHEAST WISCONSIN

CITY           SKY/WX    TMP DP  RH WIND       PRES   REMARKS
ANTIGO         CLEAR     41  41  99 CALM      29.98R
SHAWANO        CLEAR     48  43  84 CALM      29.97R
OCONTO         CLOUDY    48  46  92 N5        29.94R
STURGEON BAY   CLOUDY    52  46  82 N9        29.95S
GREEN BAY      CLOUDY    49  46  90 W5        29.96R
MANITOWOC      NOT AVBL
APPLETON       CLEAR     46  43  87 NW8       29.96R
CLINTONVILLE   CLEAR     46  43  87 NW7       29.97R
OSHKOSH        CLEAR     50  44  80 NW6       29.96R
$$

WIZ032>034-041-042-053>061-011100-
SOUTHWEST WISCONSIN

CITY           SKY/WX    TMP DP  RH WIND       PRES   REMARKS
LA CROSSE      PTCLDY    55  51  86 N5        29.97S
SPARTA         CLEAR     42  42  97 CALM      29.99S
VIROQUA        PTCLDY    51  51  99 CALM      29.97S
BOSCOBEL       FOG       52  51  97 CALM      29.95F VSB 1/4
PRAIRIE DU CHI MOCLDY    55  53  95 CALM      29.94F FOG
PLATTEVILLE    PTCLDY    55  53  95 N6        29.94S
$$

WIZ056-057-062-063-064-067-068-011100-
SOUTH CENTRAL WISCONSIN

CITY           SKY/WX    TMP DP  RH WIND       PRES   REMARKS
REEDSBURG      PTCLDY    54  49  85 NE3       29.97R
BARABOO/DELLS  PTCLDY    51  46  80 NE3       29.97S
LONE ROCK      NOT AVBL
MINERAL POINT  MOCLDY    55  54  94 N6        29.94F
MADISON        CLOUDY    56  48  74 N7        29.95R
MIDDLETON      CLOUDY    58  48  68 NE7       29.97R
WATERTOWN      CLOUDY    56  56 100 CALM      29.95R
MONROE         CLOUDY    59  55  88 CALM      29.94S
JANESVILLE     CLOUDY    57  55  94 CALM      29.94S
$$

WIZ051-052-058>065-066-070>072-011100-
SOUTHEAST WISCONSIN

CITY           SKY/WX    TMP DP  RH WIND       PRES   REMARKS
MILWAUKEE      MOCLDY    55  49  80 NW7       29.95S
WAUKESHA       CLOUDY    52  50  93 CALM      29.96R
MILWAUKEE/TIMM CLOUDY    54  48  82 N6        29.95S
RACINE         CLOUDY    55  50  83 NW3       29.96S
BURLINGTON     MOCLDY    51  50  97 CALM      29.95S
KENOSHA        CLOUDY    54  50  86 N6        29.94F
FOND DU LAC    CLEAR     50  45  83 NW7       29.96R
SHEBOYGAN      CLEAR     49  45  86 NW5       29.95R
WEST BEND      PTCLDY    50  45  81 CALM      29.95S
JUNEAU         PTCLDY    52  46  81 N5        29.97R
$$

LSZ147-162-011100-
LAKE SUPERIOR

STATION/POSITION TIME  TEMP    WIND        PRES    WAVE
                       AIR SEA DIR/SP/G            HT/PER
                 (UTC) (F)     (DEG/KT/KT) (MB)    (FT/S)
W MID LAKE BUOY  0850   41 38  140/  6/  6 1016.4F   1/ 5
DEVILS ISLAND    0900   53     140/  2/  3 1016.2R
SAXON HARBOR     0900   43      CALM  /  1 1015.6
$$

LMZ867-665-643>646-011100-
LAKE MICHIGAN

STATION/POSITION TIME  TEMP    WIND        PRES    WAVE
                       AIR SEA DIR/SP/G            HT/PER
                 (UTC) (F)     (DEG/KT/KT) (MB)    (FT/S)
CHAMBERS ISLAND  0900   53     340/ 12/ 15 1013.5R
N MID LAKE BUOY  0850   46 41  310/ 10/ 12 1012.5R   2/ 4
NORTHPORT PIER   0900   52     340/ 16/ 19 1012.9S
SISTER BAY       0814   52      10/ 13/ 17   N/A
ALGOMA LAKESHORE 0910          340/  5/  8   N/A
KEWAUNEE LAKESHO 0900   54     340/  3/  8 1012.5R
SHEBOYGAN LAKESH 0900   53     290/  8/  9 1014.0R
PORT WASHINGTON  0900   53     300/  5/  7 1014.6
ATWATER BUOY     0900   56     290/  6/ 10 1015.3R
MILWAUKEE LAKESH 0900   55     290/  5/  8   N/A
KENOSHA   LAKESH 0900   55     340/  6/  8 1013.9R
$$

TC  - TEMPERATURE IN CELSIUS
VSB - VISIBILITY IN STATUTE MILES
WCI - WIND CHILL INDEX
HX  - HEAT INDEX



USA.gov is the U.S. government's official web portal to all federal, state and local government web resources and services.